Weather History for Wellsville, NY

Change the Weather History Date:

Sunday, November 4, 2012

  Actual Average (KBFD) Record (KBFD)
Temperature  
Mean Temperature 30 °F 41 °F  
Max Temperature 33 °F 50 °F 74 °F (2003)
Min Temperature 28 °F 32 °F 13 °F (1991)
Degree Days  
Heating Degree Days 34 19  
Month to date heating degree days 75  
Since 1 July heating degree days 1068  
Cooling Degree Days 0 0  
Month to date cooling degree days 0  
Year to date cooling degree days 193  
Moisture  
Dew Point 25 °F    
Average Humidity 80    
Maximum Humidity 93    
Minimum Humidity 69    
Precipitation  
Precipitation 0.01 in 0.11 in 1.19 in (1982)
Month to date precipitation 0.46  
Year to date precipitation 37.76  
Sea Level Pressure  
Sea Level Pressure 30.06 in    
Wind  
Wind Speed 8 mph (NNW)    
Max Wind Speed 14 mph    
Max Gust Speed 18 mph    
Visibility 8 miles    
Events Snow    
T = Trace of Precipitation, MM = Missing Value Source: NWS Daily Summary

Daily Weather History Graph

Daily Weather History Graph

Search for Another Location

Airport:

Trip Planner

Search our weather history database for the weather conditions in past years. The results will help you decide how hot, cold, wet, or windy it might be!

Date:

Astronomy

Nov. 04, 2012 Rise Set
Actual Time 6:49 AM EST 5:01 PM EST
Civil Twilight 6:19 AM EST 5:30 PM EST
Nautical Twilight 5:46 AM EST 6:03 PM EST
Astronomical Twilight 5:13 AM EST 6:36 PM EST
Moon 9:36 PM EST (11/4) 11:32 AM EST (11/4)
Length of Visible Light 11h 10m
Length of Day
10h 12m
Waning Gibbous, 72% of the Moon is Illuminated
Nov 4
Waning Gibbous
Nov 6
Last Quarter
Nov 13
New
Nov 20
First Quarter
Nov 28
Full

Hourly Weather History & Observations

Time (EST) Temp. Windchill Dew Point Humidity Pressure Visibility Wind Dir Wind Speed Gust Speed Precip Events Conditions
12:56 AM 32.0 °F 24.2 °F 24.1 °F 73% 30.07 in 10.0 mi NW 9.2 mph - N/A   Overcast
1:56 AM 30.9 °F 22.8 °F 25.0 °F 79% 30.08 in 10.0 mi WNW 9.2 mph - N/A   Overcast
1:56 AM 30.9 °F 23.5 °F 25.0 °F 79% 30.08 in 10.0 mi NW 8.1 mph - N/A   Overcast
2:56 AM 30.9 °F 25.2 °F 26.1 °F 82% 30.08 in 10.0 mi NW 5.8 mph - N/A   Overcast
3:08 AM 30.2 °F 24.3 °F 26.6 °F 86% 30.01 in 7.0 mi NNW 5.8 mph - 0.00 in Snow Light Snow
3:19 AM 30.2 °F 23.4 °F 26.6 °F 86% 30.01 in 2.5 mi NNW 6.9 mph - 0.00 in Snow Light Snow
3:26 AM 30.2 °F 22.6 °F 26.6 °F 86% 30.01 in 6.0 mi NNW 8.1 mph - 0.00 in Snow Light Snow
3:56 AM 30.0 °F 24.1 °F 26.1 °F 85% 30.09 in 9.0 mi NNW 5.8 mph - 0.00 in   Overcast
4:24 AM 30.2 °F 23.4 °F 26.6 °F 86% 30.03 in 2.5 mi NNW 6.9 mph - 0.00 in Snow Light Snow
4:34 AM 30.2 °F 24.3 °F 26.6 °F 86% 30.03 in 4.0 mi NW 5.8 mph - 0.00 in Snow Light Snow
4:46 AM 30.2 °F 24.3 °F 26.6 °F 86% 30.03 in 10.0 mi NNW 5.8 mph - 0.00 in   Overcast
4:56 AM 30.0 °F 22.4 °F 26.1 °F 85% 30.10 in 4.0 mi NNW 8.1 mph - 0.00 in Snow Light Snow
5:12 AM 30.2 °F 23.4 °F 26.6 °F 86% 30.04 in 2.0 mi NNW 6.9 mph - 0.01 in Snow Light Snow
5:28 AM 30.2 °F 24.3 °F 26.6 °F 86% 30.04 in 1.2 mi NNW 5.8 mph - 0.01 in Snow Light Snow
5:35 AM 30.2 °F 24.3 °F 26.6 °F 86% 30.04 in 2.5 mi NNW 5.8 mph - 0.01 in Snow Light Snow
5:37 AM 30.2 °F 23.4 °F 26.6 °F 86% 30.04 in 4.0 mi NNW 6.9 mph - 0.01 in Snow Light Snow
5:47 AM 30.2 °F 24.3 °F 26.6 °F 86% 30.03 in 9.0 mi North 5.8 mph - 0.01 in   Overcast
5:56 AM 30.0 °F 24.1 °F 27.0 °F 88% 30.10 in 7.0 mi NNW 5.8 mph - 0.01 in Snow Light Snow
6:05 AM 30.2 °F 24.3 °F 26.6 °F 86% 30.03 in 8.0 mi North 5.8 mph - 0.00 in Snow Light Snow
6:42 AM 28.4 °F 23.3 °F 26.6 °F 93% 30.02 in 10.0 mi North 4.6 mph - 0.00 in   Overcast
6:56 AM 28.9 °F 23.9 °F 26.1 °F 89% 30.10 in 10.0 mi NNW 4.6 mph - 0.00 in   Overcast
7:05 AM 28.4 °F 21.2 °F 26.6 °F 93% 30.03 in 10.0 mi NNW 6.9 mph - N/A   Overcast
7:56 AM 30.0 °F 24.1 °F 25.0 °F 82% 30.11 in 9.0 mi Variable 5.8 mph - 0.00 in Snow Light Snow
8:56 AM 30.0 °F 22.4 °F 24.1 °F 79% 30.10 in 10.0 mi NNW 8.1 mph - N/A   Overcast
9:32 AM 30.2 °F 23.4 °F 24.8 °F 80% 30.03 in 7.0 mi NNW 6.9 mph - 0.00 in Snow Light Snow
9:56 AM 30.9 °F 26.2 °F 25.0 °F 79% 30.10 in 10.0 mi NW 4.6 mph - 0.00 in   Overcast
10:14 AM 30.2 °F 20.8 °F 24.8 °F 80% 30.03 in 10.0 mi NNW 11.5 mph 18.4 mph N/A   Overcast
10:56 AM 32.0 °F 24.2 °F 24.1 °F 73% 30.10 in 10.0 mi NNW 9.2 mph - N/A   Overcast
11:17 AM 32.0 °F 24.8 °F 24.8 °F 75% 30.03 in 10.0 mi NNW 8.1 mph - N/A   Overcast
11:46 AM 32.0 °F 24.2 °F 24.8 °F 75% 30.03 in 10.0 mi NW 9.2 mph - N/A   Overcast
11:56 AM 32.0 °F 26.4 °F 25.0 °F 75% 30.09 in 10.0 mi NW 5.8 mph - N/A   Overcast
12:56 PM 32.0 °F 24.2 °F 25.0 °F 75% 30.09 in 10.0 mi NW 9.2 mph - N/A   Overcast
1:56 PM 33.1 °F 23.9 °F 25.0 °F 72% 30.08 in 10.0 mi NW 12.7 mph - N/A   Overcast
2:21 PM 32.0 °F 24.2 °F 24.8 °F 75% 30.01 in 10.0 mi NW 9.2 mph - N/A   Overcast
2:51 PM 32.0 °F 24.2 °F 24.8 °F 75% 30.01 in 10.0 mi NW 9.2 mph - N/A   Overcast
2:56 PM 32.0 °F 25.6 °F 25.0 °F 75% 30.08 in 10.0 mi Variable 6.9 mph - N/A   Overcast
3:56 PM 32.0 °F 25.6 °F 24.1 °F 73% 30.09 in 10.0 mi NNW 6.9 mph - N/A   Overcast
4:56 PM 30.9 °F 24.3 °F 24.1 °F 76% 30.09 in 10.0 mi NW 6.9 mph - N/A   Overcast
5:56 PM 30.9 °F 22.2 °F 21.9 °F 69% 30.10 in 10.0 mi NW 10.4 mph - N/A   Overcast
6:56 PM 30.0 °F 22.4 °F 21.9 °F 72% 30.12 in 10.0 mi NW 8.1 mph - N/A   Overcast
7:56 PM 30.0 °F 19.5 °F 21.9 °F 72% 30.12 in 10.0 mi NW 13.8 mph - N/A   Overcast
8:56 PM 30.0 °F 22.4 °F 21.9 °F 72% 30.12 in 10.0 mi NNW 8.1 mph - N/A   Overcast
9:56 PM 30.0 °F 22.4 °F 21.9 °F 72% 30.11 in 10.0 mi NNW 8.1 mph - N/A   Overcast
10:56 PM 28.9 °F 23.9 °F 21.9 °F 75% 30.10 in 10.0 mi Variable 4.6 mph - N/A   Overcast